Location: *
(32.8667°N, 13.1833°E)
Time: 01:45:10
(UTC+00:00)

Lacrosse 4 Rocket - Pass Details

Date: 18 July 2019
Orbit: 541 x 618 km, 68.0° (Epoch: 23 August)

Event Time Altitude Azimuth Distance (km) Brightness Sun altitude
Exits shadow 22:41:23 13° 30° (NNE) 1,793 4.4 -35.6°
Drops below altitude 10° 22:41:51 10° 29° (NNE) 1,978 4.7 -35.7°
Sets 22:44:07 0° 27° (NNE) 2,881 5.7 -35.7°
